Find Dojo

NORAD ID: 65302 Int'l Des: 2025-185 Owner: ESPACE Country: RW operational
LEOCIRCULARRETROGRADESSO

リアルタイム位置

3D地球を読み込み中...

Dojoについて

説明を読み込み中...

次回通過

Passes for default location (London). Set your location on the main map for personalized predictions.

高度履歴

Loading altitude history...

軌道要素

1 65302U 25185F 26106.63317293 .00005431 00000-0 75499-3 0 9996
2 65302 97.9635 190.6431 0011371 260.6897 99.3028 14.78208906 34746
Epoch: Apr 16, 2026 • Age: 7 hours

現在のステータス

高度 642.9 km
速度 7.54 km/s
衛星直下点 -36.28°S, 179.93°E
打ち上げ日 Aug 23, 2025
運用期間 0.6 years
タイプ other

技術仕様

分類 Payload
質量 30.00 kg
乾燥質量 30.00 kg
総質量 30.00 kg
長さ 0.60 m
直径 0.40 m
スパン 2.00 m
形状 Box+ pan
製造者 ESPACE
バスタイプ Calistus
フェーズステータス In Orbit
所有者/国 ESPACE/RW

Most Searched